Weather History for KFDY - October, 2011

Change the Weather History Date:

Wednesday, October 12, 2011

  Actual Average Record
Temperature  
Mean Temperature 58 °F -  
Max Temperature 62 °F 63 °F 84 °F (2008)
Min Temperature 55 °F 43 °F 30 °F (1957)
Degree Days  
Heating Degree Days 6    
Growing Degree Days 8 (Base 50)    
Moisture  
Dew Point 55 °F    
Average Humidity 86    
Maximum Humidity 100    
Minimum Humidity 72    
Precipitation  
Precipitation 0.00 in - - ()
Sea Level Pressure  
Sea Level Pressure 29.85 in    
Wind  
Wind Speed 4 mph (ESE)    
Max Wind Speed 10 mph    
Max Gust Speed -    
Visibility 7 miles    
Events Rain    
Averages and records for this station are not official NWS values.
T = Trace of Precipitation, MM = Missing Value Source: NWS Daily Summary

Daily Weather History Graph

Daily Weather History Graph

Search for Another Location

Airport or City:

Trip Planner

Search our weather history database for the weather conditions in past years. The results will help you decide how hot, cold, wet, or windy it might be!

Date:

Astronomy

Oct. 12, 2011 Rise Set
Actual Time 7:42 AM EDT 6:59 PM EDT
Civil Twilight 7:14 AM EDT 7:26 PM EDT
Nautical Twilight 6:43 AM EDT 7:58 PM EDT
Astronomical Twilight 6:11 AM EDT 8:30 PM EDT
Moon 6:59 PM EDT (10/12) 8:17 AM EDT (10/12)
Length of Visible Light 12h 11m
Length of Day
11h 16m
Full, 100% of the Moon is Illuminated
Oct 12
Full
Oct 19
Last Quarter
Oct 26
New
Nov 2
First Quarter
Nov 10
Full

Hourly Weather History & Observations

Time (EDT) Temp. Dew Point Humidity Pressure Visibility Wind Dir Wind Speed Gust Speed Precip Events Conditions
12:53 AM 59.0 °F 50.0 °F 72% 29.95 in 10.0 mi ESE 4.6 mph - N/A   Clear
1:53 AM 57.9 °F 50.0 °F 75% 29.94 in 10.0 mi Calm Calm - N/A   Clear
2:53 AM 59.0 °F 50.0 °F 72% 29.93 in 10.0 mi Calm Calm - N/A   Clear
3:53 AM 55.9 °F 51.1 °F 84% 29.92 in 10.0 mi South 4.6 mph - N/A   Clear
4:53 AM 59.0 °F 51.1 °F 75% 29.92 in 10.0 mi Calm Calm - N/A   Clear
5:53 AM 57.0 °F 52.0 °F 83% 29.92 in 10.0 mi South 4.6 mph - N/A   Clear
6:53 AM 57.0 °F 52.0 °F 83% 29.94 in 10.0 mi SSE 3.5 mph - N/A   Clear
7:53 AM 57.0 °F 52.0 °F 83% 29.94 in 10.0 mi Calm Calm - N/A   Mostly Cloudy
9:53 AM 59.0 °F 54.0 °F 83% 29.92 in 10.0 mi SE 4.6 mph - N/A   Overcast
10:53 AM 60.1 °F 54.0 °F 80% 29.91 in 10.0 mi SE 5.8 mph - N/A   Mostly Cloudy
11:53 AM 62.1 °F 55.0 °F 78% 29.88 in 10.0 mi ENE 10.4 mph - N/A   Overcast
12:39 PM 62.6 °F 55.4 °F 77% 29.88 in 10.0 mi ENE 9.2 mph - N/A   Overcast
12:53 PM 62.1 °F 55.0 °F 78% 29.87 in 10.0 mi ENE 6.9 mph - N/A   Overcast
1:53 PM 61.0 °F 55.9 °F 83% 29.85 in 6.0 mi East 4.6 mph - N/A   Haze
2:04 PM 60.8 °F 57.2 °F 88% 29.86 in 1.8 mi East 6.9 mph - 0.00 in Rain Light Rain
2:07 PM 59.0 °F 57.2 °F 94% 29.85 in 1.2 mi East 5.8 mph - 0.00 in Rain Rain
2:15 PM 59.0 °F 57.2 °F 94% 29.85 in 1.2 mi ENE 4.6 mph - 0.00 in Rain Light Rain
2:31 PM 59.0 °F 57.2 °F 94% 29.84 in 2.5 mi NE 5.8 mph - 0.00 in   Overcast
2:38 PM 59.0 °F 57.2 °F 94% 29.84 in 1.8 mi NE 3.5 mph - 0.00 in Rain Light Rain
2:53 PM 59.0 °F 57.0 °F 93% 29.82 in 1.5 mi NE 5.8 mph - 0.00 in Rain Light Rain
3:17 PM 59.0 °F 57.2 °F 94% 29.82 in 3.0 mi NE 4.6 mph - 0.00 in   Overcast
3:53 PM 60.1 °F 57.0 °F 90% 29.80 in 8.0 mi NE 3.5 mph - 0.00 in   Overcast
4:07 PM 60.8 °F 57.2 °F 88% 29.80 in 9.0 mi ENE 4.6 mph - N/A   Overcast
5:53 PM 61.0 °F 55.9 °F 83% 29.78 in 10.0 mi Calm Calm - N/A   Overcast
6:53 PM 60.1 °F 55.9 °F 86% 29.76 in 9.0 mi Calm Calm - N/A   Overcast
7:53 PM 59.0 °F 57.0 °F 93% 29.76 in 9.0 mi Calm Calm - N/A   Overcast
8:11 PM 59.0 °F 55.4 °F 88% 29.76 in 9.0 mi SE 3.5 mph - N/A   Overcast
8:53 PM 55.0 °F 55.0 °F 100% 29.75 in 6.0 mi SSE 3.5 mph - N/A   Mostly Cloudy
9:22 PM 55.4 °F 53.6 °F 94% 29.77 in 3.0 mi South 3.5 mph - N/A   Mostly Cloudy
10:25 PM 57.2 °F 55.4 °F 94% 29.77 in 5.0 mi Calm Calm - N/A   Overcast
10:53 PM 57.0 °F 55.0 °F 93% 29.75 in 5.0 mi SE 3.5 mph - N/A   Overcast
11:53 PM 57.9 °F 55.9 °F 93% 29.73 in 6.0 mi SSE 4.6 mph - N/A   Overcast